Latest Weather Observations for Mandurah

IDW60801

Issued at 10:32 pm WST Sunday 2 August 2015 (issued every 30 minutes, with the page automatically refreshed every 10 minutes)

About weather observations | Map of weather stations | Latest weather observations for WA | Other Formats
Station Details ID: 009977 Name: MANDURAH Lat: -32.52 Lon: 115.71 Height: 3.0 m
Data from the previous 72 hours. | See also: Recent months at Mandurah
Date/Time
WST
Temp
°C
App
Temp
°C
Dew
Point
Rel
Hum
%
Delta-T
°C
Wind Press
QNH
hPa
Press
MSL
hPa
Rain
since 9 am
mm
Dir
 
Spd
km/h
Gust
km/h
Spd
kts
Gust
kts
02/10:30pm 11.1 8.7 5.4 68 2.6 ESE 7 11 4 6 1034.2 1034.2 0.0
02/10:00pm 11.5 8.4 5.6 67 2.7 ESE 11 15 6 8 1034.5 1034.5 0.0
02/09:30pm 11.8 9.2 5.9 67 2.8 SE 9 15 5 8 1034.6 1034.6 0.0
02/09:00pm 12.2 8.8 5.8 65 3.0 SE 13 19 7 10 1034.6 1034.6 0.0
02/08:30pm 12.6 9.2 6.0 64 3.1 SE 13 19 7 10 1034.5 1034.5 0.0
02/08:00pm 12.9 9.5 6.0 63 3.2 SE 13 19 7 10 1034.4 1034.4 0.0
02/07:30pm 13.2 9.9 6.3 63 3.3 SE 13 19 7 10 1034.2 1034.2 0.0
02/07:00pm 13.8 10.8 6.2 60 3.6 SE 11 15 6 8 1034.0 1034.0 0.0
02/06:30pm 14.4 11.5 6.3 58 3.9 SE 11 15 6 8 1033.6 1033.6 0.0
02/06:00pm 15.0 12.4 6.0 55 4.3 SE 9 15 5 8 1033.3 1033.3 0.0
02/05:30pm 15.8 13.1 5.7 51 4.8 SE 9 15 5 8 1033.0 1033.0 0.0
02/05:00pm 16.4 13.8 6.0 50 5.0 ESE 9 13 5 7 1032.6 1032.6 0.0
02/04:30pm 16.6 14.0 5.9 49 5.2 SSE 9 15 5 8 1032.3 1032.3 0.0
02/04:00pm 17.0 14.4 5.9 48 5.3 ESE 9 13 5 7 1032.1 1032.1 0.0
02/03:30pm 17.0 14.4 5.9 48 5.4 SSE 9 15 5 8 1031.9 1031.9 0.0
02/03:00pm 16.7 14.0 5.6 48 5.3 S 9 17 5 9 1032.0 1032.0 0.0
02/02:30pm 16.7 14.0 5.6 48 5.3 SSE 9 17 5 9 1031.9 1031.9 0.0
02/02:00pm 16.6 13.7 4.6 45 5.6 SE 9 17 5 9 1032.0 1032.0 0.0
02/01:30pm 16.6 13.7 4.9 46 5.6 SSE 9 15 5 8 1032.2 1032.2 0.0
02/01:00pm 15.8 12.9 4.8 48 5.1 SSE 9 15 5 8 1032.7 1032.7 0.0
02/12:30pm 15.4 12.5 4.8 49 5.0 S 9 17 5 9 1033.3 1033.3 0.0
02/12:00pm 16.3 13.0 4.7 46 5.4 E 11 19 6 10 1033.9 1033.9 0.0
02/11:30am 14.6 11.1 3.4 47 5.1 E 11 22 6 12 1034.1 1034.1 0.0
02/11:00am 14.3 9.8 4.0 50 4.7 ESE 17 26 9 14 1034.5 1034.5 0.0
02/10:30am 14.1 10.2 3.3 48 4.9 ESE 13 19 7 10 1034.8 1034.8 0.0
02/10:00am 12.9 9.6 4.3 56 3.9 ESE 11 19 6 10 1034.7 1034.7 0.0
02/09:30am 11.4 8.4 4.2 61 3.2 ESE 9 13 5 7 1034.6 1034.6 0.0
02/09:00am 9.9 6.9 3.9 66 2.6 ESE 9 15 5 8 1034.5 1034.5 0.0
02/08:30am 8.7 6.0 3.5 70 2.2 ESE 7 9 4 5 1034.3 1034.3 0.0
02/08:00am 8.1 5.4 3.8 74 1.8 SE 7 9 4 5 1034.1 1034.1 0.0
02/07:30am 7.5 4.8 3.6 76 1.7 SE 7 9 4 5 1033.7 1033.7 0.0
02/07:00am 7.8 5.3 3.5 74 1.8 SE 6 9 3 5 1033.3 1033.3 0.0
02/06:30am 7.9 5.1 3.4 73 1.9 SE 7 9 4 5 1032.9 1032.9 0.0
02/06:00am 8.2 5.1 3.5 72 2.0 SE 9 11 5 6 1032.5 1032.5 0.0
02/05:30am 8.5 5.8 3.6 71 2.1 SE 7 11 4 6 1032.2 1032.2 0.0
02/05:00am 8.9 5.7 3.3 68 2.4 SE 9 13 5 7 1031.9 1031.9 0.0
02/04:30am 9.3 5.8 3.7 68 2.4 SE 11 15 6 8 1031.8 1031.8 0.0
02/04:00am 9.9 7.0 4.5 69 2.4 SE 9 15 5 8 1031.8 1031.8 0.0
02/03:30am 10.3 6.6 4.7 68 2.5 SSE 13 17 7 9 1031.7 1031.7 0.0
02/03:00am 10.7 6.6 4.6 66 2.7 SSE 15 20 8 11 1031.6 1031.6 0.0
02/02:30am 11.1 7.1 4.8 65 2.9 SE 15 19 8 10 1031.4 1031.4 0.0
02/02:00am 11.4 7.4 4.8 64 3.0 SSE 15 20 8 11 1031.3 1031.3 0.0
02/01:30am 11.6 7.2 4.8 63 3.1 SSE 17 22 9 12 1031.4 1031.4 0.0
02/01:00am 11.8 7.8 5.0 63 3.1 SE 15 20 8 11 1031.4 1031.4 0.0
02/12:30am 12.0 8.5 5.6 65 3.0 SSE 13 19 7 10 1031.1 1031.1 0.0
02/12:00am 12.1 9.1 5.9 66 2.9 SSE 11 19 6 10 1031.0 1031.0 0.0
 
Date/Time
WST
Temp
°C
App
Temp
°C
Dew
Point
Rel
Hum
%
Delta-T
°C
Wind Press
QNH
hPa
Press
MSL
hPa
Rain
since 9 am
mm
Dir
 
Spd
km/h
Gust
km/h
Spd
kts
Gust
kts
01/11:30pm 12.3 8.9 6.1 66 2.9 SSE 13 19 7 10 1030.9 1030.9 0.0
01/11:00pm 12.7 9.8 6.3 65 3.0 SSE 11 17 6 9 1030.7 1030.7 0.0
01/10:30pm 12.9 10.3 6.3 64 3.1 SSE 9 17 5 9 1030.8 1030.8 0.0
01/10:00pm 13.1 10.6 6.5 64 3.1 SSE 9 13 5 7 1030.5 1030.5 0.0
01/09:30pm 13.3 10.2 5.7 60 3.6 SSE 11 17 6 9 1030.3 1030.3 0.0
01/09:00pm 13.5 10.6 4.6 55 4.1 SE 9 17 5 9 1030.1 1030.1 0.0
01/08:30pm 13.6 10.7 4.5 54 4.2 SE 9 15 5 8 1029.9 1029.9 0.0
01/08:00pm 13.5 9.8 4.6 55 4.1 SSE 13 19 7 10 1029.4 1029.4 0.0
01/07:30pm 13.3 10.8 4.7 56 4.0 SE 7 11 4 6 1029.0 1029.0 0.0
01/07:00pm 13.5 10.2 4.4 54 4.1 ESE 11 19 6 10 1028.5 1028.5 0.0
01/06:30pm 14.3 10.8 5.4 55 4.2 SE 13 22 7 12 1028.1 1028.1 0.0
01/06:00pm 14.8 12.4 5.3 53 4.5 SE 7 11 4 6 1027.5 1027.5 0.0
01/05:30pm 15.3 13.0 5.5 52 4.7 SE 7 13 4 7 1027.0 1027.0 0.0
01/05:00pm 15.6 12.7 4.6 48 5.1 SE 9 13 5 7 1026.8 1026.8 0.0
01/04:30pm 16.0 12.3 4.4 46 5.4 ESE 13 19 7 10 1026.5 1026.5 0.0
01/04:00pm 16.1 12.1 5.1 48 5.2 SE 15 20 8 11 1026.2 1026.2 0.0
01/03:30pm 16.2 11.4 4.9 47 5.3 SE 19 26 10 14 1025.7 1025.7 0.0
01/03:00pm 16.3 11.3 4.7 46 5.4 SE 20 28 11 15 1025.3 1025.3 0.0
01/02:30pm 16.6 12.4 5.6 48 5.3 SSE 17 28 9 15 1025.1 1025.1 0.0
01/02:00pm 16.7 12.0 5.0 46 5.5 SE 19 32 10 17 1025.0 1025.0 0.0
01/01:30pm 16.2 11.4 4.9 47 5.3 SSE 19 32 10 17 1025.0 1025.0 0.0
01/01:00pm 16.6 11.8 5.6 48 5.3 SE 20 32 11 17 1025.0 1025.0 0.0
01/12:30pm 16.4 11.2 5.4 48 5.3 SE 22 33 12 18 1025.1 1025.1 0.0
01/12:00pm 16.0 10.8 5.3 49 5.1 SSE 22 33 12 18 1025.2 1025.2 0.0
01/11:30am 15.7 9.3 5.0 49 5.1 SE 28 39 15 21 1025.2 1025.2 0.0
01/11:00am 15.2 10.5 6.0 54 4.4 SE 20 35 11 19 1025.3 1025.3 0.0
01/10:30am 14.8 10.4 6.4 57 4.1 SE 19 30 10 16 1025.4 1025.4 0.0
01/10:00am 14.0 9.7 6.8 62 3.5 SE 19 33 10 18 1025.0 1025.0 0.0
01/09:30am 13.0 8.9 7.9 71 2.5 SSE 19 28 10 15 1024.7 1024.7 0.0
01/09:00am 12.4 8.6 7.7 73 2.3 SSE 17 24 9 13 1024.3 1024.3 0.4
01/08:30am 12.5 9.0 7.4 71 2.5 SSE 15 24 8 13 1023.6 1023.6 0.4
01/08:00am 12.2 8.3 6.9 70 2.5 SSE 17 28 9 15 1023.0 1023.0 0.4
01/07:30am 12.2 8.3 7.1 71 2.5 SE 17 26 9 14 1022.3 1022.3 0.4
01/07:00am 12.3 8.1 7.4 72 2.4 SE 19 24 10 13 1021.5 1021.5 0.4
01/06:30am 12.5 8.2 7.8 73 2.3 SSE 20 28 11 15 1020.8 1020.8 0.4
01/06:00am 12.7 8.4 7.8 72 2.4 SE 20 28 11 15 1020.5 1020.5 0.4
01/05:30am 12.6 8.3 7.7 72 2.4 SE 20 28 11 15 1020.1 1020.1 0.4
01/05:00am 12.6 7.7 7.1 69 2.6 SE 22 32 12 17 1019.6 1019.6 0.4
01/04:30am 12.8 7.9 7.0 68 2.8 SE 22 30 12 16 1019.3 1019.3 0.4
01/04:00am 12.9 7.9 6.5 65 3.0 SE 22 33 12 18 1019.1 1019.1 0.4
01/03:30am 13.1 7.4 6.5 64 3.2 SE 26 35 14 19 1018.6 1018.6 0.4
01/03:00am 13.0 8.7 7.0 67 2.9 SE 19 30 10 16 1018.4 1018.4 0.4
01/02:30am 13.0 8.7 7.0 67 2.9 SE 19 28 10 15 1017.8 1017.8 0.4
01/02:00am 13.5 8.3 7.1 65 3.1 SE 24 39 13 21 1017.7 1017.7 0.4
01/01:30am 13.3 9.0 7.7 69 2.7 SE 20 33 11 18 1017.6 1017.6 0.4
01/01:00am 13.3 8.2 7.7 69 2.7 SE 24 37 13 20 1017.2 1017.2 0.4
01/12:30am 13.2 8.1 7.6 69 2.7 SE 24 37 13 20 1017.0 1017.0 0.4
01/12:00am 13.3 7.6 8.2 71 2.5 SE 28 43 15 23 1016.4 1016.4 0.4
 
Date/Time
WST
Temp
°C
App
Temp
°C
Dew
Point
Rel
Hum
%
Delta-T
°C
Wind Press
QNH
hPa
Press
MSL
hPa
Rain
since 9 am
mm
Dir
 
Spd
km/h
Gust
km/h
Spd
kts
Gust
kts
31/11:30pm 13.5 8.8 9.2 75 2.2 SE 24 39 13 21 1016.2 1016.2 0.4
31/11:00pm 13.5 8.5 9.7 78 1.9 SE 26 37 14 20 1015.9 1015.9 0.4
31/10:30pm 13.1 9.3 11.0 87 1.1 SE 22 39 12 21 1015.4 1015.4 0.4
31/10:00pm 13.2 9.4 11.1 87 1.1 ESE 22 39 12 21 1015.2 1015.2 0.4
31/09:30pm 13.8 8.8 11.0 83 1.5 SE 28 41 15 22 1014.8 1014.8 0.4
31/09:00pm 14.7 10.1 10.9 78 2.0 SE 26 39 14 21 1014.8 1014.8 0.4
31/08:30pm 15.5 11.0 11.3 76 2.3 SE 26 43 14 23 1014.2 1014.2 0.4
31/08:00pm 16.0 12.4 11.8 76 2.3 SE 22 35 12 19 1013.6 1013.6 0.4
31/07:30pm 16.2 12.7 12.2 77 2.2 SE 22 32 12 17 1013.1 1013.1 0.4
31/07:00pm 16.6 13.9 12.8 78 2.1 SE 19 28 10 15 1012.6 1012.6 0.4
31/06:30pm 17.1 14.6 13.4 79 2.1 SSE 19 33 10 18 1012.2 1012.2 0.4
31/06:00pm 18.0 17.9 14.9 82 1.8 S 9 17 5 9 1011.4 1011.4 0.4
31/05:30pm 18.1 17.5 13.6 75 2.6 SSW 9 15 5 8 1011.1 1011.1 0.4
31/05:00pm 18.1 17.1 13.4 74 2.7 SW 11 17 6 9 1011.0 1011.0 0.4
31/04:30pm 18.5 17.4 13.1 71 3.0 WSW 11 17 6 9 1011.0 1011.0 0.4
31/04:00pm 19.1 17.9 12.8 67 3.5 SW 11 17 6 9 1011.0 1011.0 0.4
31/03:30pm 19.4 18.5 13.8 70 3.2 WSW 11 15 6 8 1011.1 1011.1 0.2
31/03:00pm 19.9 18.6 13.8 68 3.5 WSW 13 17 7 9 1010.8 1010.8 0.2
31/02:30pm 20.5 19.8 14.4 68 3.6 WSW 11 15 6 8 1010.5 1010.5 0.2
31/02:00pm 20.1 19.1 14.5 70 3.3 SW 13 17 7 9 1010.7 1010.7 0.2
31/01:30pm 20.4 19.6 15.0 71 3.2 WSW 13 17 7 9 1011.2 1011.2 0.2
31/01:00pm 20.5 20.3 15.7 74 2.9 WSW 11 17 6 9 1011.6 1011.6 0.2
31/12:30pm 20.2 19.3 15.8 76 2.6 WSW 15 22 8 12 1011.5 1011.5 0.2
31/12:00pm 19.4 19.5 15.5 78 2.3 SSW 9 13 5 7 1011.5 1011.5 0.2
31/11:30am 20.0 19.5 16.0 78 2.4 SW 13 19 7 10 1012.1 1012.1 0.2
31/11:00am 19.9 20.8 17.5 86 1.5 WSW 9 13 5 7 1012.6 1012.6 0.2
31/10:30am 19.0 21.1 18.2 95 0.5 SSE 4 9 2 5 1012.8 1012.8 0.2
31/10:00am 18.4 20.6 18.4 100 0.0 SSE 4 6 2 3 1013.0 1013.0 0.2
31/09:30am 17.5 19.0 17.5 100 0.0 W 6 17 3 9 1013.0 1013.0 0.2
31/09:00am 17.2 18.5 17.2 100 0.0 NE 6 7 3 4 1013.3 1013.3 7.4
31/08:30am 17.1 18.2 17.1 100 0.0 NE 7 11 4 6 1012.7 1012.7 6.8
31/08:00am 17.1 18.2 17.1 100 0.0 NNE 7 11 4 6 1012.5 1012.5 6.6
31/07:30am 17.1 17.1 17.1 100 0.0 N 13 24 7 13 1012.1 1012.1 6.6
31/07:00am 17.0 15.6 17.0 100 0.0 N 20 26 11 14 1011.9 1011.9 6.6
31/06:30am 16.9 15.5 16.9 100 0.0 N 20 24 11 13 1011.5 1011.5 6.6
31/06:00am 17.1 13.8 17.1 100 0.0 N 30 35 16 19 1011.7 1011.7 6.6
31/05:30am 17.1 15.7 17.1 100 0.0 N 20 33 11 18 1011.9 1011.9 6.6
31/05:00am 16.9 17.9 16.9 100 0.0 NW 7 11 4 6 1011.9 1011.9 6.6
31/04:30am 17.1 15.0 17.1 100 0.0 N 24 30 13 16 1011.8 1011.8 3.8
31/04:00am 17.0 14.4 16.8 99 0.1 NNE 26 35 14 19 1011.4 1011.4 3.8
31/03:30am 16.9 14.3 16.9 100 0.0 NNE 26 30 14 16 1012.1 1012.1 3.8
31/03:00am 16.8 14.6 16.8 100 0.0 NNE 24 30 13 16 1012.4 1012.4 3.8
31/02:30am 16.8 14.6 16.8 100 0.0 NNE 24 32 13 17 1012.4 1012.4 3.8
31/02:00am 17.1 13.3 16.8 98 0.2 NNE 32 39 17 21 1012.9 1012.9 2.8
31/01:30am 17.0 13.9 16.5 97 0.3 NNE 28 35 15 19 1013.6 1013.6 2.8
31/01:00am 17.0 13.8 16.4 96 0.4 N 28 33 15 18 1014.4 1014.4 2.8
31/12:30am 17.0 12.7 16.0 94 0.6 N 33 41 18 22 1014.2 1014.2 2.8
31/12:00am 16.8 13.2 16.3 97 0.3 N 30 35 16 19 1014.3 1014.3 2.8
 
Date/Time
WST
Temp
°C
App
Temp
°C
Dew
Point
Rel
Hum
%
Delta-T
°C
Wind Press
QNH
hPa
Press
MSL
hPa
Rain
since 9 am
mm
Dir
 
Spd
km/h
Gust
km/h
Spd
kts
Gust
kts
30/11:30pm 16.7 14.4 16.7 100 0.0 N 24 30 13 16 1014.5 1014.5 2.8
30/11:00pm 16.7 13.2 16.5 99 0.1 N 30 35 16 19 1014.6 1014.6 2.8

Other Formats:

Comma delimited format used in spreadsheet applications
http://www.bom.gov.au/fwo/IDW60801/IDW60801.94605.axf

JavaScript Object Notation format (JSON) in row-major order
http://www.bom.gov.au/fwo/IDW60801/IDW60801.94605.json